Location: Choisy
(48.7685°N, 2.4187°E)
Time: 09:26:23
(UTC+00:00)

ATLAS 3B R/B - Pass Details

Date: 01 December 2023
Orbit: 947 x 1247 km, 63.8° (Epoch: 10 February)

Event Time Altitude Azimuth Distance (km) Brightness Sun altitude
Exits shadow 06:09:56 - 254° (WSW) 3,263 4.8 -11.4°
Reaches altitude 10° 06:10:50 10° 257° (WSW) 2,974 4.5 -11.2°
Maximum altitude 06:17:35 43° 328° (NNW) 1,592 3.3 -10.2°
Drops below altitude 10° 06:24:47 10° 38° (NE) 3,172 5.4 -9.1°
Sets 06:27:49 0° 45° (NE) 4,166 6.1 -8.6°
